RJA163 OJAI-LTFM

Flight info

Callsign RJA163
Flight time 1h 58m
Altitude 40000
Route MUVIN L53 TAPUZ W13 VELOX N71 DESPO DCT VOLBE DCT VESAR UL620 KFK UM855 SISPI
Aircraft B788/H-SDE1E2E3FGHIJ2J3J4J5M1RWXY/LB1D1

Departure

Time 2026-05-08 15:06
Airport Queen Alia International Airport (OJAI)

Arrival

Time 2026-05-08 17:04
Airport İstanbul Airport (LTFM)
Time Latitude Longitude Altitude Speed Heading
2026-05-08 14:27 31.72061 35.98793 2379 ft 0 kts 351°
2026-05-08 14:55 31.72049 35.98795 2383 ft 4 kts 356°
2026-05-08 14:55 31.72022 35.98794 2385 ft 4 kts 15°
2026-05-08 14:55 31.71999 35.98781 2385 ft 4 kts 44°
2026-05-08 14:55 31.71986 35.98759 2380 ft 1 kts 80°
2026-05-08 14:56 31.71986 35.98753 2382 ft 0 kts 80°
2026-05-08 14:59 31.71987 35.98764 2381 ft 5 kts 80°
2026-05-08 14:59 31.71996 35.98855 2378 ft 8 kts 95°
2026-05-08 14:59 31.71959 35.98893 2377 ft 8 kts 160°
2026-05-08 15:00 31.71890 35.98914 2376 ft 12 kts 158°
2026-05-08 15:00 31.71859 35.99021 2376 ft 12 kts 82°
2026-05-08 15:00 31.71874 35.99127 2376 ft 14 kts 81°
2026-05-08 15:00 31.71893 35.99254 2377 ft 17 kts 79°
2026-05-08 15:01 31.71906 35.99349 2377 ft 18 kts 81°
2026-05-08 15:01 31.71928 35.99504 2378 ft 20 kts 81°
2026-05-08 15:01 31.71953 35.99673 2378 ft 22 kts 81°
2026-05-08 15:01 31.71980 35.99859 2379 ft 24 kts 80°
2026-05-08 15:02 31.72008 36.00060 2379 ft 26 kts 81°
2026-05-08 15:02 31.72039 36.00272 2379 ft 27 kts 80°
2026-05-08 15:02 31.72070 36.00487 2380 ft 27 kts 80°
2026-05-08 15:02 31.72101 36.00706 2380 ft 27 kts 80°
2026-05-08 15:03 31.72136 36.00927 2381 ft 28 kts 80°
2026-05-08 15:03 31.72167 36.01150 2381 ft 28 kts 81°
2026-05-08 15:03 31.72199 36.01376 2382 ft 28 kts 80°
2026-05-08 15:03 31.72232 36.01603 2382 ft 28 kts 80°
2026-05-08 15:04 31.72216 36.01785 2382 ft 16 kts 147°
2026-05-08 15:04 31.72106 36.01812 2382 ft 17 kts 172°
2026-05-08 15:04 31.72003 36.01809 2383 ft 11 kts 212°
2026-05-08 15:04 31.71973 36.01737 2383 ft 10 kts 257°
2026-05-08 15:05 31.71959 36.01637 2383 ft 21 kts 261°
2026-05-08 15:05 31.71911 36.01303 2381 ft 69 kts 260°
2026-05-08 15:05 31.71793 36.00502 2378 ft 130 kts 260°
2026-05-08 15:05 31.71609 35.99258 2395 ft 177 kts 261°
2026-05-08 15:06 31.71335 35.97858 3230 ft 168 kts 255°
2026-05-08 15:06 31.71114 35.96460 3991 ft 178 kts 266°
2026-05-08 15:06 31.70965 35.94995 4772 ft 191 kts 265°
2026-05-08 15:06 31.70764 35.93347 5280 ft 217 kts 261°
2026-05-08 15:07 31.70549 35.91488 5801 ft 244 kts 265°
2026-05-08 15:07 31.70390 35.89383 6369 ft 272 kts 263°
2026-05-08 15:07 31.70205 35.87113 6910 ft 283 kts 263°
2026-05-08 15:07 31.70031 35.84793 7384 ft 288 kts 263°
2026-05-08 15:08 31.69865 35.82455 7856 ft 288 kts 263°
2026-05-08 15:08 31.69691 35.80109 8330 ft 288 kts 262°
2026-05-08 15:08 31.69512 35.77758 8824 ft 289 kts 262°
2026-05-08 15:08 31.69355 35.75394 9305 ft 293 kts 266°
2026-05-08 15:09 31.69805 35.73049 9789 ft 301 kts 292°
2026-05-08 15:09 31.71067 35.71071 10268 ft 307 kts 317°
2026-05-08 15:09 31.72837 35.69646 10725 ft 309 kts 326°
2026-05-08 15:09 31.74654 35.68293 11265 ft 310 kts 326°
2026-05-08 15:10 31.76506 35.66913 11857 ft 322 kts 325°
2026-05-08 15:10 31.78299 35.65258 12419 ft 335 kts 308°
2026-05-08 15:10 31.79446 35.62890 12999 ft 345 kts 288°
2026-05-08 15:10 31.80186 35.60158 13599 ft 355 kts 286°
2026-05-08 15:11 31.80887 35.57337 14153 ft 365 kts 285°
2026-05-08 15:11 31.81614 35.54443 14687 ft 373 kts 286°
2026-05-08 15:11 31.82375 35.51512 15226 ft 376 kts 287°
2026-05-08 15:11 31.83233 35.48593 15770 ft 379 kts 290°
2026-05-08 15:12 31.84114 35.45653 16318 ft 382 kts 289°
2026-05-08 15:12 31.84973 35.42681 16879 ft 386 kts 289°
2026-05-08 15:12 31.85863 35.39693 17450 ft 387 kts 290°
2026-05-08 15:12 31.86773 35.36691 18030 ft 391 kts 290°
2026-05-08 15:13 31.87680 35.33668 18572 ft 393 kts 290°
2026-05-08 15:13 31.88586 35.30635 19077 ft 394 kts 290°
2026-05-08 15:13 31.89498 35.27580 19593 ft 396 kts 290°
2026-05-08 15:13 31.90408 35.24525 20122 ft 397 kts 290°
2026-05-08 15:14 31.91319 35.21456 20639 ft 398 kts 290°
2026-05-08 15:14 31.92047 35.18986 21081 ft 398 kts 290°
2026-05-08 15:14 31.92955 35.15900 21623 ft 398 kts 291°
2026-05-08 15:14 31.93865 35.12817 22199 ft 398 kts 291°
2026-05-08 15:15 31.94774 35.09748 22757 ft 397 kts 291°
2026-05-08 15:15 31.95682 35.06679 23336 ft 395 kts 291°
2026-05-08 15:15 31.96581 35.03635 23756 ft 397 kts 291°
2026-05-08 15:15 31.97504 35.00510 23811 ft 407 kts 291°
2026-05-08 15:16 31.98430 34.97363 24205 ft 406 kts 291°
2026-05-08 15:16 31.99356 34.94206 24498 ft 409 kts 292°
2026-05-08 15:16 32.00284 34.91041 24835 ft 410 kts 292°
2026-05-08 15:16 32.01109 34.87816 25122 ft 414 kts 285°
2026-05-08 15:17 32.01481 34.84427 25412 ft 419 kts 278°
2026-05-08 15:17 32.01681 34.80997 25690 ft 421 kts 278°
2026-05-08 15:17 32.01877 34.77546 25998 ft 423 kts 278°
2026-05-08 15:17 32.02066 34.74084 26286 ft 424 kts 278°
2026-05-08 15:18 32.02257 34.70604 26591 ft 426 kts 278°
2026-05-08 15:18 32.02448 34.67164 26875 ft 427 kts 278°
2026-05-08 15:18 32.02646 34.63621 27169 ft 428 kts 279°
2026-05-08 15:18 32.03197 34.60208 27453 ft 422 kts 292°
2026-05-08 15:19 32.04444 34.57112 27762 ft 417 kts 306°
2026-05-08 15:19 32.06277 34.54541 28077 ft 415 kts 319°
2026-05-08 15:19 32.08632 34.52574 28366 ft 416 kts 332°
2026-05-08 15:19 32.11340 34.51350 28656 ft 420 kts 345°
2026-05-08 15:20 32.14240 34.50830 28914 ft 424 kts 350°
2026-05-08 15:20 32.17175 34.50422 29222 ft 425 kts 351°
2026-05-08 15:20 32.20118 34.50037 29504 ft 426 kts 351°
2026-05-08 15:20 32.23068 34.49640 29795 ft 428 kts 350°
2026-05-08 15:21 32.26029 34.49228 30076 ft 429 kts 350°
2026-05-08 15:21 32.28994 34.48819 30329 ft 430 kts 350°
2026-05-08 15:21 32.31973 34.48416 30586 ft 431 kts 351°
2026-05-08 15:21 32.34982 34.48221 30799 ft 434 kts 354°
2026-05-08 15:22 32.38008 34.48078 31039 ft 435 kts 354°
2026-05-08 15:22 32.41033 34.47927 31288 ft 436 kts 354°
2026-05-08 15:22 32.44071 34.47784 31526 ft 437 kts 354°
2026-05-08 15:22 32.47111 34.47646 31764 ft 438 kts 354°
2026-05-08 15:23 32.50164 34.47504 31997 ft 439 kts 354°
2026-05-08 15:23 32.53215 34.47359 32237 ft 440 kts 354°
2026-05-08 15:23 32.56234 34.47217 32535 ft 439 kts 353°
2026-05-08 15:23 32.59282 34.47075 32889 ft 437 kts 353°
2026-05-08 15:24 32.62317 34.46933 33268 ft 435 kts 353°
2026-05-08 15:24 32.65336 34.46791 33676 ft 433 kts 353°
2026-05-08 15:24 32.68342 34.46649 34071 ft 430 kts 353°
2026-05-08 15:24 32.71328 34.46508 34378 ft 429 kts 353°
2026-05-08 15:25 32.74315 34.46367 34626 ft 429 kts 353°
2026-05-08 15:25 32.77299 34.46226 34886 ft 430 kts 353°
2026-05-08 15:25 32.80289 34.46085 35145 ft 430 kts 353°
2026-05-08 15:25 32.83271 34.45944 35397 ft 430 kts 353°
2026-05-08 15:26 32.86259 34.45803 35662 ft 429 kts 353°
2026-05-08 15:26 32.89245 34.45662 35940 ft 429 kts 353°
2026-05-08 15:26 32.92229 34.45521 36195 ft 429 kts 353°
2026-05-08 15:26 32.95217 34.45379 36454 ft 429 kts 353°
2026-05-08 15:27 32.98197 34.45238 36699 ft 429 kts 353°
2026-05-08 15:27 33.01184 34.45096 36969 ft 429 kts 353°
2026-05-08 15:27 33.04163 34.44955 37239 ft 429 kts 353°
2026-05-08 15:27 33.07138 34.44814 37520 ft 428 kts 353°
2026-05-08 15:28 33.10118 34.44672 37778 ft 428 kts 353°
2026-05-08 15:28 33.13052 34.44532 38047 ft 428 kts 353°
2026-05-08 15:28 33.16026 34.44391 38297 ft 428 kts 353°
2026-05-08 15:28 33.19003 34.44249 38567 ft 428 kts 353°
2026-05-08 15:29 33.21976 34.44107 38802 ft 428 kts 353°
2026-05-08 15:29 33.24951 34.43965 38992 ft 428 kts 353°
2026-05-08 15:29 33.27929 34.43823 39191 ft 428 kts 353°
2026-05-08 15:29 33.30908 34.43681 39374 ft 429 kts 353°
2026-05-08 15:30 33.33891 34.43539 39560 ft 430 kts 353°
2026-05-08 15:30 33.36883 34.43396 39740 ft 430 kts 353°
2026-05-08 15:30 33.39879 34.43252 39923 ft 431 kts 353°
2026-05-08 15:30 33.42878 34.43109 40057 ft 433 kts 353°
2026-05-08 15:31 33.48927 34.42819 40047 ft 434 kts 353°
2026-05-08 15:31 33.54933 34.42531 40046 ft 431 kts 353°
2026-05-08 15:32 33.60941 34.42242 40051 ft 431 kts 353°
2026-05-08 15:32 33.66937 34.41954 40049 ft 432 kts 353°
2026-05-08 15:33 33.72938 34.41664 40051 ft 431 kts 353°
2026-05-08 15:33 33.78904 34.41376 40059 ft 431 kts 353°
2026-05-08 15:34 33.84902 34.41086 40063 ft 431 kts 353°
2026-05-08 15:34 33.90900 34.40796 40067 ft 431 kts 353°
2026-05-08 15:35 33.96900 34.40505 40075 ft 431 kts 353°
2026-05-08 15:35 34.02892 34.40214 40072 ft 431 kts 353°
2026-05-08 15:36 34.07873 34.39973 40072 ft 431 kts 353°
2026-05-08 15:36 34.14867 34.39632 40071 ft 431 kts 353°
2026-05-08 15:37 34.20857 34.39340 40069 ft 431 kts 353°
2026-05-08 15:37 34.26861 34.39047 40072 ft 431 kts 353°
2026-05-08 15:38 34.32818 34.38756 40070 ft 431 kts 353°
2026-05-08 15:38 34.38809 34.38462 40070 ft 431 kts 353°
2026-05-08 15:39 34.44811 34.38096 40076 ft 428 kts 347°
2026-05-08 15:39 34.50645 34.36748 40073 ft 427 kts 345°
2026-05-08 15:40 34.56475 34.35326 40071 ft 426 kts 344°
2026-05-08 15:40 34.62251 34.33911 40071 ft 425 kts 344°
2026-05-08 15:41 34.68062 34.32487 40074 ft 427 kts 344°
2026-05-08 15:41 34.73882 34.31059 40072 ft 427 kts 344°
2026-05-08 15:42 34.79707 34.29627 40069 ft 427 kts 344°
2026-05-08 15:42 34.85535 34.28188 40067 ft 426 kts 344°
2026-05-08 15:43 34.91349 34.26748 40065 ft 426 kts 344°
2026-05-08 15:43 34.97165 34.25307 40072 ft 426 kts 344°
2026-05-08 15:44 35.02945 34.23872 40066 ft 426 kts 344°
2026-05-08 15:44 35.08757 34.22427 40072 ft 426 kts 344°
2026-05-08 15:45 35.14582 34.20977 40074 ft 427 kts 344°
2026-05-08 15:45 35.20400 34.19526 40073 ft 427 kts 344°
2026-05-08 15:46 35.26219 34.18073 40075 ft 426 kts 344°
2026-05-08 15:46 35.32034 34.16619 40081 ft 426 kts 344°
2026-05-08 15:47 35.37840 34.15165 40084 ft 426 kts 344°
2026-05-08 15:47 35.43646 34.13709 40082 ft 426 kts 344°
2026-05-08 15:48 35.52357 34.11521 40081 ft 425 kts 344°
2026-05-08 15:49 35.57174 34.10308 40082 ft 425 kts 344°
2026-05-08 15:49 35.62975 34.08846 40081 ft 425 kts 344°
2026-05-08 15:50 35.68779 34.07382 40087 ft 426 kts 344°
2026-05-08 15:50 35.74582 34.05915 40084 ft 426 kts 344°
2026-05-08 15:51 35.80387 34.04445 40082 ft 426 kts 344°
2026-05-08 15:51 35.86201 34.02971 40083 ft 426 kts 344°
2026-05-08 15:52 35.91848 34.01055 40087 ft 421 kts 333°
2026-05-08 15:52 35.96942 33.97544 40088 ft 419 kts 327°
2026-05-08 15:53 36.01931 33.93789 40083 ft 420 kts 326°
2026-05-08 15:53 36.06923 33.90007 40089 ft 421 kts 326°
2026-05-08 15:54 36.11920 33.86227 40092 ft 421 kts 326°
2026-05-08 15:54 36.16927 33.82427 40094 ft 422 kts 326°
2026-05-08 15:55 36.21940 33.78620 40101 ft 423 kts 326°
2026-05-08 15:55 36.29446 33.72906 40105 ft 423 kts 326°
2026-05-08 15:56 36.34421 33.69111 40117 ft 423 kts 326°
2026-05-08 15:56 36.39447 33.65270 40121 ft 424 kts 326°
2026-05-08 15:57 36.44477 33.61422 40130 ft 424 kts 326°
2026-05-08 15:57 36.49497 33.57575 40129 ft 424 kts 326°
2026-05-08 15:58 36.54522 33.53718 40134 ft 424 kts 326°
2026-05-08 15:58 36.59535 33.49865 40139 ft 424 kts 326°
2026-05-08 15:59 36.64548 33.46004 40142 ft 424 kts 326°
2026-05-08 15:59 36.69565 33.42135 40145 ft 424 kts 326°
2026-05-08 16:00 36.74538 33.38295 40146 ft 423 kts 326°
2026-05-08 16:00 36.79539 33.34427 40126 ft 423 kts 325°
2026-05-08 16:01 36.84517 33.30541 40158 ft 421 kts 323°
2026-05-08 16:01 36.88854 33.25696 40145 ft 420 kts 312°
2026-05-08 16:02 36.92831 33.20336 40169 ft 421 kts 312°
2026-05-08 16:02 36.96794 33.14924 40161 ft 422 kts 311°
2026-05-08 16:03 37.00779 33.09501 40165 ft 423 kts 311°
2026-05-08 16:03 37.04746 33.04081 40172 ft 422 kts 311°
2026-05-08 16:04 37.08709 32.98664 40176 ft 422 kts 311°
2026-05-08 16:04 37.12672 32.93234 40178 ft 422 kts 311°
2026-05-08 16:05 37.16614 32.87825 40180 ft 422 kts 311°
2026-05-08 16:05 37.20569 32.82390 40186 ft 422 kts 311°
2026-05-08 16:06 37.24525 32.76944 40184 ft 423 kts 311°
2026-05-08 16:06 37.28488 32.71478 40189 ft 423 kts 311°
2026-05-08 16:07 37.32450 32.66006 40190 ft 424 kts 311°
2026-05-08 16:07 37.36419 32.60514 40185 ft 424 kts 311°
2026-05-08 16:08 37.40362 32.55050 40191 ft 425 kts 311°
2026-05-08 16:08 37.44328 32.49543 40194 ft 425 kts 311°
2026-05-08 16:09 37.48294 32.44027 40198 ft 425 kts 311°
2026-05-08 16:09 37.52256 32.38507 40189 ft 425 kts 311°
2026-05-08 16:10 37.56215 32.32984 40193 ft 424 kts 311°
2026-05-08 16:10 37.60167 32.27458 40201 ft 424 kts 311°
2026-05-08 16:11 37.64119 32.21925 40201 ft 425 kts 311°
2026-05-08 16:11 37.68076 32.16374 40214 ft 426 kts 311°
2026-05-08 16:12 37.72038 32.10808 40212 ft 426 kts 311°
2026-05-08 16:12 37.75984 32.05249 40220 ft 424 kts 310°
2026-05-08 16:13 37.79928 31.99689 40222 ft 425 kts 311°
2026-05-08 16:13 37.83872 31.94122 40219 ft 425 kts 310°
2026-05-08 16:14 37.87812 31.88545 40218 ft 425 kts 310°
2026-05-08 16:14 37.91722 31.83004 40219 ft 425 kts 310°
2026-05-08 16:15 37.95661 31.77411 40217 ft 425 kts 310°
2026-05-08 16:15 37.99595 31.71816 40217 ft 425 kts 310°
2026-05-08 16:16 38.03535 31.66202 40213 ft 426 kts 310°
2026-05-08 16:16 38.07481 31.60570 40213 ft 428 kts 310°
2026-05-08 16:17 38.10598 31.55707 40205 ft 428 kts 306°
2026-05-08 16:17 38.15160 31.49031 40208 ft 428 kts 310°
2026-05-08 16:18 38.19101 31.43413 40207 ft 428 kts 310°
2026-05-08 16:18 38.23097 31.37752 40209 ft 428 kts 310°
2026-05-08 16:19 38.27033 31.32142 40204 ft 428 kts 310°
2026-05-08 16:19 38.31004 31.26488 40199 ft 429 kts 310°
2026-05-08 16:20 38.34974 31.20817 40197 ft 429 kts 310°
2026-05-08 16:20 38.38941 31.15141 40199 ft 429 kts 310°
2026-05-08 16:21 38.42910 31.09453 40196 ft 429 kts 310°
2026-05-08 16:21 38.46879 31.03755 40200 ft 429 kts 310°
2026-05-08 16:22 38.50836 30.98035 40194 ft 429 kts 310°
2026-05-08 16:22 38.54771 30.92284 40196 ft 431 kts 310°
2026-05-08 16:23 38.58723 30.86529 40196 ft 431 kts 309°
2026-05-08 16:23 38.62670 30.80753 40194 ft 431 kts 310°
2026-05-08 16:24 38.66619 30.74972 40191 ft 431 kts 309°
2026-05-08 16:24 38.70563 30.69185 40191 ft 432 kts 309°
2026-05-08 16:25 38.74514 30.63379 40195 ft 432 kts 309°
2026-05-08 16:25 38.78472 30.57578 40191 ft 433 kts 312°
2026-05-08 16:26 38.83266 30.52896 40202 ft 439 kts 329°
2026-05-08 16:26 38.88694 30.49391 40192 ft 439 kts 330°
2026-05-08 16:27 38.94163 30.45909 40191 ft 439 kts 330°
2026-05-08 16:27 38.99630 30.42398 40185 ft 439 kts 330°
2026-05-08 16:28 39.05098 30.38893 40178 ft 440 kts 330°
2026-05-08 16:28 39.10570 30.35373 40190 ft 439 kts 330°
2026-05-08 16:29 39.16035 30.31854 40178 ft 439 kts 330°
2026-05-08 16:29 39.21509 30.28323 40180 ft 439 kts 330°
2026-05-08 16:30 39.26970 30.24793 40179 ft 439 kts 330°
2026-05-08 16:30 39.32437 30.21254 40175 ft 439 kts 330°
2026-05-08 16:31 39.37894 30.17715 40172 ft 439 kts 330°
2026-05-08 16:31 39.43345 30.14173 40172 ft 438 kts 330°
2026-05-08 16:32 39.48883 30.10849 40168 ft 439 kts 333°
2026-05-08 16:32 39.51671 30.09297 39874 ft 446 kts 333°
2026-05-08 16:32 39.54517 30.07707 39448 ft 443 kts 333°
2026-05-08 16:33 39.57332 30.06142 39046 ft 438 kts 333°
2026-05-08 16:33 39.60114 30.04595 38588 ft 432 kts 333°
2026-05-08 16:33 39.62862 30.03059 38079 ft 429 kts 333°
2026-05-08 16:33 39.65597 30.01527 37598 ft 428 kts 333°
2026-05-08 16:34 39.68344 29.99991 37127 ft 432 kts 333°
2026-05-08 16:34 39.71112 29.98443 36656 ft 434 kts 333°
2026-05-08 16:34 39.73896 29.96885 36204 ft 436 kts 333°
2026-05-08 16:34 39.76690 29.95319 35763 ft 437 kts 333°
2026-05-08 16:35 39.79487 29.93748 35337 ft 439 kts 333°
2026-05-08 16:35 39.82300 29.92166 34890 ft 441 kts 333°
2026-05-08 16:35 39.85119 29.90580 34476 ft 442 kts 333°
2026-05-08 16:35 39.87944 29.88990 34048 ft 443 kts 334°
2026-05-08 16:36 39.90805 29.87466 33578 ft 446 kts 339°
2026-05-08 16:36 39.93834 29.86511 33129 ft 451 kts 347°
2026-05-08 16:36 39.96938 29.85840 32671 ft 453 kts 347°
2026-05-08 16:36 40.00054 29.85174 32215 ft 454 kts 348°
2026-05-08 16:37 40.03178 29.84518 31772 ft 455 kts 348°
2026-05-08 16:37 40.06267 29.83866 31332 ft 456 kts 348°
2026-05-08 16:37 40.09410 29.83194 30890 ft 458 kts 348°
2026-05-08 16:37 40.12552 29.82523 30472 ft 458 kts 348°
2026-05-08 16:38 40.15695 29.81855 30019 ft 456 kts 348°
2026-05-08 16:38 40.18818 29.81191 29522 ft 453 kts 348°
2026-05-08 16:38 40.21922 29.80528 29037 ft 450 kts 348°
2026-05-08 16:38 40.23962 29.80092 28717 ft 448 kts 348°
2026-05-08 16:39 40.27026 29.79436 28236 ft 445 kts 348°
2026-05-08 16:39 40.30057 29.78798 28116 ft 438 kts 350°
2026-05-08 16:39 40.36215 29.79010 28113 ft 447 kts
2026-05-08 16:40 40.39296 29.78750 28039 ft 443 kts 347°
2026-05-08 16:40 40.42238 29.77566 27678 ft 440 kts 334°
2026-05-08 16:40 40.44881 29.75631 27246 ft 433 kts 326°
2026-05-08 16:40 40.47372 29.73411 26813 ft 431 kts 324°
2026-05-08 16:41 40.49832 29.71193 26371 ft 428 kts 326°
2026-05-08 16:41 40.52384 29.69194 25863 ft 426 kts 331°
2026-05-08 16:41 40.55038 29.67498 25355 ft 424 kts 334°
2026-05-08 16:42 40.60257 29.64009 24375 ft 417 kts 330°
2026-05-08 16:42 40.62791 29.62171 23891 ft 415 kts 330°
2026-05-08 16:42 40.65337 29.60411 23368 ft 412 kts 332°
2026-05-08 16:42 40.67882 29.58683 22800 ft 411 kts 332°
2026-05-08 16:43 40.70401 29.56936 22254 ft 408 kts 331°
2026-05-08 16:43 40.72899 29.55181 21698 ft 406 kts 331°
2026-05-08 16:43 40.75386 29.53446 21177 ft 404 kts 331°
2026-05-08 16:43 40.77867 29.51725 20645 ft 402 kts 331°
2026-05-08 16:44 40.80334 29.50008 20140 ft 400 kts 331°
2026-05-08 16:44 40.82788 29.48293 19626 ft 398 kts 331°
2026-05-08 16:44 40.85232 29.46584 19138 ft 397 kts 331°
2026-05-08 16:44 40.87672 29.44879 18639 ft 395 kts 332°
2026-05-08 16:45 40.90100 29.43182 18125 ft 394 kts 332°
2026-05-08 16:45 40.92516 29.41491 17563 ft 391 kts 332°
2026-05-08 16:45 40.94898 29.39821 17030 ft 382 kts 332°
2026-05-08 16:45 40.97205 29.38203 16560 ft 366 kts 332°
2026-05-08 16:46 40.99409 29.36657 16121 ft 352 kts 332°
2026-05-08 16:46 41.01535 29.35163 15694 ft 339 kts 332°
2026-05-08 16:46 41.03558 29.33741 15271 ft 328 kts 332°
2026-05-08 16:46 41.05542 29.32345 14870 ft 318 kts 332°
2026-05-08 16:47 41.07463 29.30992 14495 ft 308 kts 332°
2026-05-08 16:47 41.09337 29.29671 14129 ft 302 kts 332°
2026-05-08 16:47 41.11186 29.28370 13744 ft 300 kts 332°
2026-05-08 16:47 41.13020 29.27078 13344 ft 297 kts 332°
2026-05-08 16:48 41.14839 29.25794 12943 ft 295 kts 332°
2026-05-08 16:48 41.16650 29.24513 12563 ft 294 kts 331°
2026-05-08 16:48 41.18452 29.23235 12202 ft 292 kts 331°
2026-05-08 16:48 41.20243 29.21972 11849 ft 290 kts 331°
2026-05-08 16:49 41.22019 29.20720 11493 ft 289 kts 331°
2026-05-08 16:49 41.23788 29.19469 11141 ft 287 kts 331°
2026-05-08 16:49 41.25552 29.18218 10813 ft 286 kts 331°
2026-05-08 16:49 41.27300 29.16972 10465 ft 284 kts 330°
2026-05-08 16:50 41.29027 29.15750 10121 ft 277 kts 331°
2026-05-08 16:50 41.30699 29.14570 9760 ft 268 kts 330°
2026-05-08 16:50 41.32321 29.13419 9380 ft 260 kts 330°
2026-05-08 16:50 41.33905 29.12292 9013 ft 257 kts 330°
2026-05-08 16:51 41.35471 29.11178 8650 ft 254 kts 330°
2026-05-08 16:51 41.37026 29.10072 8306 ft 251 kts 330°
2026-05-08 16:51 41.38547 29.08990 7969 ft 244 kts 330°
2026-05-08 16:51 41.40034 29.07931 7661 ft 240 kts 330°
2026-05-08 16:52 41.41504 29.06885 7354 ft 239 kts 330°
2026-05-08 16:52 41.42947 29.05856 7062 ft 238 kts 330°
2026-05-08 16:52 41.44403 29.04818 6776 ft 237 kts 329°
2026-05-08 16:52 41.45851 29.03784 6484 ft 235 kts 329°
2026-05-08 16:53 41.48723 29.01733 5880 ft 233 kts 329°
2026-05-08 16:53 41.50147 29.00716 5579 ft 232 kts 329°
2026-05-08 16:53 41.51566 28.99700 5275 ft 231 kts 329°
2026-05-08 16:54 41.52976 28.98692 4982 ft 229 kts 329°
2026-05-08 16:54 41.54378 28.97689 4684 ft 228 kts 329°
2026-05-08 16:54 41.55778 28.96689 4382 ft 228 kts 329°
2026-05-08 16:54 41.57169 28.95688 4081 ft 227 kts 328°
2026-05-08 16:55 41.58292 28.94303 3957 ft 218 kts 303°
2026-05-08 16:55 41.59076 28.92547 3985 ft 221 kts 298°
2026-05-08 16:55 41.59826 28.90747 3988 ft 222 kts 298°
2026-05-08 16:55 41.60578 28.88946 3983 ft 222 kts 298°
2026-05-08 16:56 41.61337 28.87151 3986 ft 222 kts 298°
2026-05-08 16:56 41.62097 28.85361 3981 ft 222 kts 298°
2026-05-08 16:56 41.62856 28.83565 3978 ft 222 kts 298°
2026-05-08 16:56 41.63560 28.81739 3973 ft 221 kts 288°
2026-05-08 16:57 41.63658 28.79745 3971 ft 212 kts 263°
2026-05-08 16:57 41.63098 28.77922 3965 ft 214 kts 237°
2026-05-08 16:57 41.61979 28.76603 3967 ft 219 kts 214°
2026-05-08 16:57 41.60614 28.75699 3972 ft 222 kts 204°
2026-05-08 16:58 41.59118 28.75179 3972 ft 223 kts 193°
2026-05-08 16:58 41.57552 28.75074 3982 ft 226 kts 183°
2026-05-08 16:58 41.55980 28.75102 3983 ft 226 kts 182°
2026-05-08 16:58 41.54402 28.75132 3987 ft 226 kts 182°
2026-05-08 16:59 41.52824 28.75162 3977 ft 227 kts 182°
2026-05-08 16:59 41.51270 28.75192 3978 ft 227 kts 182°
2026-05-08 16:59 41.49693 28.75223 4002 ft 226 kts 182°
2026-05-08 16:59 41.48134 28.75255 3909 ft 217 kts 182°
2026-05-08 17:00 41.46655 28.75288 3647 ft 212 kts 183°
2026-05-08 17:00 41.45189 28.75318 3370 ft 207 kts 183°
2026-05-08 17:00 41.43814 28.75349 3112 ft 185 kts 183°
2026-05-08 17:00 41.42582 28.75369 2865 ft 172 kts 184°
2026-05-08 17:01 41.41399 28.75389 2650 ft 168 kts 183°
2026-05-08 17:01 41.40280 28.75412 2432 ft 151 kts 183°
2026-05-08 17:01 41.39256 28.75431 2230 ft 146 kts 183°
2026-05-08 17:01 41.38253 28.75453 2048 ft 143 kts 182°
2026-05-08 17:02 41.37269 28.75463 1864 ft 141 kts 182°
2026-05-08 17:02 41.36287 28.75480 1670 ft 140 kts 181°
2026-05-08 17:02 41.35332 28.75503 1487 ft 136 kts 180°
2026-05-08 17:02 41.34384 28.75521 1305 ft 135 kts 181°
2026-05-08 17:03 41.33446 28.75527 1128 ft 137 kts 180°
2026-05-08 17:03 41.32503 28.75551 952 ft 135 kts 179°
2026-05-08 17:03 41.31564 28.75575 768 ft 132 kts 180°
2026-05-08 17:03 41.30639 28.75581 629 ft 135 kts 181°
2026-05-08 17:04 41.29703 28.75606 468 ft 134 kts 180°
2026-05-08 17:04 41.28774 28.75626 305 ft 133 kts 180°
2026-05-08 17:04 41.28037 28.75636 310 ft 75 kts 179°
2026-05-08 17:04 41.27648 28.75643 317 ft 43 kts 179°
2026-05-08 17:05 41.27409 28.75647 320 ft 31 kts 179°
2026-05-08 17:05 41.27203 28.75632 321 ft 28 kts 197°
2026-05-08 17:05 41.27032 28.75528 317 ft 24 kts 210°
2026-05-08 17:05 41.26976 28.75486 316 ft 4 kts 209°
2026-05-08 17:06 41.26973 28.75484 316 ft 0 kts 209°
2026-05-08 17:06 41.26972 28.75483 316 ft 0 kts 209°
2026-05-08 17:06 41.26964 28.75477 315 ft 3 kts 209°
2026-05-08 17:07 41.26935 28.75454 315 ft 6 kts 210°
2026-05-08 17:07 41.26905 28.75405 315 ft 6 kts 256°
2026-05-08 17:07 41.26915 28.75381 314 ft 3 kts 316°
2026-05-08 17:07 41.26968 28.75369 316 ft 11 kts 359°
2026-05-08 17:08 41.27049 28.75350 314 ft 12 kts 323°
2026-05-08 17:08 41.27065 28.75244 311 ft 13 kts 269°
2026-05-08 17:08 41.27064 28.75130 316 ft 11 kts 269°
2026-05-08 17:08 41.27062 28.75022 316 ft 13 kts 269°
2026-05-08 17:09 41.27060 28.74895 316 ft 15 kts 268°
2026-05-08 17:09 41.27060 28.74752 316 ft 15 kts 269°
2026-05-08 17:09 41.27044 28.74626 315 ft 12 kts 234°
2026-05-08 17:09 41.26984 28.74604 318 ft 8 kts 179°
2026-05-08 17:10 41.26952 28.74605 318 ft 0 kts 179°
2026-05-08 17:11 41.26937 28.74605 319 ft 5 kts 179°
2026-05-08 17:11 41.26879 28.74606 319 ft 12 kts 179°
2026-05-08 17:11 41.26777 28.74608 318 ft 16 kts 179°
2026-05-08 17:12 41.26711 28.74641 319 ft 2 kts 126°
2026-05-08 17:12 41.26710 28.74667 319 ft 5 kts 90°
2026-05-08 17:12 41.26710 28.74716 319 ft 0 kts 90°
2026-05-08 17:12 41.26710 28.74718 319 ft 0 kts 90°